TimeCDT,TemperatureF,Dew PointF,Humidity,Sea Level PressureIn,VisibilityMPH,Wind Direction,Wind SpeedMPH,Gust SpeedMPH,PrecipitationIn,Events,Conditions,WindDirDegrees,DateUTC
12:15 AM,75.6,41.9,30,29.77,10.0,West,6.9,-,N/A,,Clear,260,2013-05-15 05:15:00
12:35 AM,71.1,44.8,39,29.77,10.0,NW,4.6,-,N/A,,Clear,310,2013-05-15 05:35:00
12:55 AM,70.5,43.9,38,29.77,10.0,NNW,5.8,-,N/A,,Clear,340,2013-05-15 05:55:00
1:15 AM,71.2,41.7,34,29.77,10.0,NNW,5.8,-,N/A,,Clear,340,2013-05-15 06:15:00
1:35 AM,71.1,38.5,31,29.79,10.0,North,6.9,-,N/A,,Clear,350,2013-05-15 06:35:00
1:55 AM,72.5,36.7,27,29.79,10.0,North,5.8,-,N/A,,Clear,350,2013-05-15 06:55:00
2:15 AM,66.9,43.9,43,29.79,10.0,NW,8.1,-,N/A,,Clear,320,2013-05-15 07:15:00
2:35 AM,69.6,35.1,28,29.81,10.0,North,11.5,17.3,N/A,,Clear,360,2013-05-15 07:35:00
2:55 AM,68.0,35.1,30,29.82,10.0,North,11.5,-,N/A,,Clear,10,2013-05-15 07:55:00
3:15 AM,65.5,37.9,36,29.82,10.0,North,9.2,-,N/A,,Clear,350,2013-05-15 08:15:00
3:35 AM,65.1,39.2,39,29.82,10.0,North,6.9,-,N/A,,Clear,10,2013-05-15 08:35:00
3:55 AM,64.6,39.9,40,29.82,10.0,NNE,6.9,-,N/A,,Clear,20,2013-05-15 08:55:00
4:15 AM,63.1,40.6,44,29.83,10.0,NE,3.5,-,N/A,,Clear,40,2013-05-15 09:15:00
4:35 AM,63.3,40.5,43,29.84,10.0,NNE,6.9,-,N/A,,Clear,20,2013-05-15 09:35:00
4:55 AM,62.6,41.9,47,29.84,10.0,North,8.1,-,N/A,,Clear,10,2013-05-15 09:55:00
5:15 AM,62.1,42.6,49,29.84,10.0,North,9.2,-,N/A,,Clear,10,2013-05-15 10:15:00
5:35 AM,62.4,42.8,49,29.85,10.0,North,13.8,-,N/A,,Clear,10,2013-05-15 10:35:00
5:55 AM,60.8,43.2,52,29.86,10.0,North,9.2,-,N/A,,Clear,360,2013-05-15 10:55:00
6:15 AM,58.6,43.9,58,29.87,10.0,NNW,8.1,-,N/A,,Clear,340,2013-05-15 11:15:00
6:35 AM,61.0,42.4,51,29.89,10.0,North,8.1,-,N/A,,Clear,360,2013-05-15 11:35:00
6:55 AM,60.6,43.5,53,29.90,10.0,North,9.2,-,N/A,,Clear,350,2013-05-15 11:55:00
7:15 AM,62.2,43.0,49,29.90,10.0,North,8.1,-,N/A,,Clear,360,2013-05-15 12:15:00
7:55 AM,64.4,42.4,45,29.90,10.0,NNE,9.2,-,N/A,,Clear,20,2013-05-15 12:55:00
8:15 AM,64.8,42.6,45,29.91,10.0,NE,12.7,-,N/A,,Clear,40,2013-05-15 13:15:00
8:35 AM,64.0,43.3,47,29.91,10.0,NE,11.5,-,N/A,,Clear,40,2013-05-15 13:35:00
8:55 AM,65.5,43.9,46,29.92,10.0,NNE,10.4,-,N/A,,Clear,20,2013-05-15 13:55:00
9:15 AM,67.8,43.0,41,29.93,10.0,NNE,10.4,-,N/A,,Clear,20,2013-05-15 14:15:00
9:35 AM,69.3,42.1,37,29.93,10.0,North,12.7,16.1,N/A,,Clear,10,2013-05-15 14:35:00
9:55 AM,70.5,41.0,34,29.93,10.0,NNE,11.5,-,N/A,,Clear,20,2013-05-15 14:55:00
10:15 AM,71.1,39.2,31,29.94,10.0,NE,13.8,-,N/A,,Clear,40,2013-05-15 15:15:00
10:35 AM,72.3,36.7,27,29.94,10.0,NNE,15.0,21.9,N/A,,Clear,20,2013-05-15 15:35:00
10:55 AM,73.4,35.2,25,29.94,10.0,NE,15.0,20.7,N/A,,Clear,50,2013-05-15 15:55:00
11:15 AM,74.8,33.6,22,29.94,10.0,ENE,17.3,25.3,N/A,,Clear,60,2013-05-15 16:15:00
11:35 AM,75.4,33.6,22,29.93,10.0,NE,16.1,24.2,N/A,,Clear,50,2013-05-15 16:35:00
11:55 AM,76.1,32.7,21,29.92,10.0,ENE,13.8,19.6,N/A,,Clear,60,2013-05-15 16:55:00
12:15 PM,77.7,31.8,19,29.92,10.0,ENE,17.3,20.7,N/A,,Clear,70,2013-05-15 17:15:00
12:55 PM,78.4,25.5,14,29.92,10.0,ENE,12.7,19.6,N/A,,Clear,70,2013-05-15 17:55:00
1:15 PM,79.5,27.5,15,29.91,10.0,ENE,11.5,17.3,N/A,,Clear,70,2013-05-15 18:15:00
1:35 PM,80.1,29.8,16,29.90,10.0,ENE,12.7,-,N/A,,Clear,60,2013-05-15 18:35:00
1:55 PM,79.9,30.7,17,29.90,10.0,NE,11.5,19.6,N/A,,Clear,40,2013-05-15 18:55:00
2:15 PM,80.1,28.0,15,29.89,10.0,ENE,12.7,16.1,N/A,,Clear,60,2013-05-15 19:15:00
2:35 PM,81.1,28.6,15,29.87,10.0,East,10.4,-,N/A,,Clear,90,2013-05-15 19:35:00
2:55 PM,79.7,28.4,15,29.86,10.0,ENE,13.8,17.3,N/A,,Clear,70,2013-05-15 19:55:00
3:35 PM,79.3,30.6,17,29.87,10.0,ENE,9.2,-,N/A,,Clear,70,2013-05-15 20:35:00
3:55 PM,81.0,32.4,17,29.87,10.0,ENE,10.4,-,N/A,,Clear,70,2013-05-15 20:55:00
4:15 PM,81.7,31.1,16,29.86,10.0,East,11.5,-,N/A,,Clear,80,2013-05-15 21:15:00
4:35 PM,80.1,31.1,17,29.86,10.0,East,6.9,16.1,N/A,,Clear,100,2013-05-15 21:35:00
4:55 PM,82.2,32.0,16,29.85,10.0,East,11.5,-,N/A,,Clear,100,2013-05-15 21:55:00
5:35 PM,82.0,32.4,17,29.86,10.0,ESE,8.1,-,N/A,,Clear,110,2013-05-15 22:35:00
5:55 PM,82.0,32.4,17,29.85,10.0,ESE,8.1,-,N/A,,Clear,110,2013-05-15 22:55:00
6:15 PM,81.9,32.2,17,29.85,10.0,SSE,6.9,-,N/A,,Clear,160,2013-05-15 23:15:00
6:35 PM,81.0,32.9,18,29.85,10.0,SE,9.2,-,N/A,,Clear,140,2013-05-15 23:35:00
6:55 PM,80.6,34.2,19,29.85,10.0,SSE,9.2,-,N/A,,Clear,150,2013-05-15 23:55:00
7:15 PM,80.6,33.8,18,29.85,10.0,SE,6.9,-,N/A,,Clear,140,2013-05-16 00:15:00
7:55 PM,75.7,38.1,26,29.85,10.0,SE,5.8,-,N/A,,Clear,130,2013-05-16 00:55:00
8:15 PM,75.0,38.3,26,29.85,7.0,ESE,4.6,-,N/A,,Clear,120,2013-05-16 01:15:00
8:35 PM,74.5,37.8,26,29.85,10.0,East,5.8,-,N/A,,Clear,100,2013-05-16 01:35:00
8:55 PM,73.0,39.0,29,29.85,10.0,East,4.6,-,N/A,,Clear,90,2013-05-16 01:55:00
9:15 PM,71.6,40.3,32,29.85,10.0,East,4.6,-,N/A,,Clear,100,2013-05-16 02:15:00
9:55 PM,71.1,39.0,31,29.86,10.0,East,4.6,-,N/A,,Clear,90,2013-05-16 02:55:00
10:15 PM,69.8,41.0,35,29.86,10.0,ESE,3.5,-,N/A,,Clear,110,2013-05-16 03:15:00
10:55 PM,66.2,45.1,47,29.86,7.0,SE,3.5,-,N/A,,Clear,140,2013-05-16 03:55:00
11:15 PM,67.8,42.3,39,29.86,10.0,ESE,3.5,-,N/A,,Clear,110,2013-05-16 04:15:00
11:55 PM,67.6,44.4,43,29.87,10.0,East,5.8,-,N/A,,Clear,80,2013-05-16 04:55:00